Weather in Derzhavinsk

Kazakhstan     51°05′55″N   66°18′52″E
temp.,
°C
wind,
m/s
gust,
m/s
humid.,
%
clouds,
%
prec.,
mm/h
press.,
hPa
HPBL,
m
23 january, sat
sat2300:00−18sw91395100 0.4 1025418
03:00−18sw71295100 0.3 1025421
06:00−18sw5995100 0.6 1025349
09:00−19sw4897100 0.1 1028214
12:00−19nw229790 0.2 103041
15:00−19wsw119688 0.0 103235
18:00−22nw229962 0.0 103520
21:00−24nne3310041 0.0 103820
24 january, sun
sun2400:00−25nne229762 0.0 104019
03:00−29e129097 0.0 104019
06:00−28s118494 0.0 104019
09:00−25sse129885 0.0 104220
12:00−22s239673 0.0 104287
15:00−20ssw3495100 0.0 1042184
18:00−17ssw599599 0.4 1037371
21:00−18s479598 0.0 1041194
25 january, mon
mon2500:00−15ssw61095100 0.3 1039318
03:00−15sw8149499 0.2 1038360
06:00−14sw61095100 0.9 1036270
09:00−14sw8139396 0.1 1036325
12:00−12sw7109492 0.3 1036255
15:00−10sw699495 0.1 1035262
18:00−8sw6995100 0.3 1035257
21:00−6sw6996100 0.1 1036198
26 january, tue
tue2600:00−5sw699699 0.3 1036253
03:00−4sw5897100 0.1 1036251
06:00−3wsw6996100 0.1 1036319
09:00−6wsw4797100 0.1 1037229
12:00−4wsw5995100 0.1 1037317
15:00−4wsw6109693 0.1 1036426
18:00−3wsw699397 0.1 1036575
21:00−4w5994100 0.1 1036483
27 january, wed
wed2700:00−6wsw479798 0.1 1036206
03:00−4wsw5894100 0.1 1036482
06:00−4wsw5894100 0.1 1036442
09:00−10wsw599990 0.0 1036189
12:00−7ssw469799 0.1 1039168
15:00−3wsw569395 0.0 1036407
18:00−4wsw5894100 0.1 1035403
21:00−8wsw339796 0.0 103632